Vertical_Velocity
1 -6 -2 -1 -3 -2 -9 -1 -3 1 -4 0 2 2 3 -2 -1 5 1 -2 1 -3 -0 1 2 -1 -1 2 -3 2 -0 2 0 1 1 1 -2 -1 -0 0 1 0 -0 -1 -1 2 -0 0 -2
-3 -7 1 2 -1 -0 -2 -4 -3 -1 1 2 4 3 1 -3 -4 -1 3 1 4 -3 -1 -0 2 3 -3 2 -1 -2 3 -1 0 0 1 -2 -0 0 -2 1 -0 0 0 -3 -1 -1 -0 2 1
1 -1 -1 2 -4 2 2 0 -1 -6 2 -1 -2 -0 0 -3 5 -4 0 2 4 0 -0 1 4 4 1 2 1 2 2 1 0 1 1 0 1 -2 -1 0 2 1 -1 -1 -1 -1 -2 2 1
-12 3 9 -1 -4 -0 -2 -3 -5 0 1 -2 3 5 4 2 -3 -3 -0 0 -0 1 -0 1 1 -0 2 1 2 1 1 1 0 1 0 -1 -0 -0 -0 -1 0 0 -1 -0 -2 -2 -2 -1 3
-0 10 -4 -1 -1 -6 3 -1 -0 1 3 2 4 3 5 -4 -1 -0 -0 2 -1 1 2 2 1 0 1 3 3 2 2 0 1 0 -1 -1 -1 -0 0 -0 0 -1 -1 0 -1 1 -0 0 -2
6 3 -1 5 -0 6 -1 -0 0 -2 0 2 -1 -3 3 -6 2 1 1 1 -1 -3 -1 1 1 2 0 1 2 2 1 -0 0 -1 -1 -1 -1 0 -0 -0 -1 -0 -1 -0 -1 -0 -0 -1 -1
-1 -2 -6 -6 -7 0 -2 1 -3 2 -1 0 3 4 1 1 -2 -2 -2 0 -2 -0 -1 -0 1 1 2 1 2 2 -0 -1 1 -0 -0 -1 0 -1 -1 -2 -2 -1 -2 -0 -0 -0 -1 -0 -0
9 1 -3 -4 -1 -1 -5 0 6 3 1 0 -2 1 4 -2 -2 1 2 2 -2 -1 1 -1 -0 1 4 1 2 3 -0 -1 0 1 1 0 -0 -1 -1 -1 -2 -2 -2 -2 -1 -1 -0 1 -0
-7 -10 -3 3 4 4 -0 2 2 -3 0 1 2 -0 -3 -5 -2 3 -2 1 -3 0 -1 -2 -1 2 2 1 -1 1 -2 0 -1 -1 0 -1 -1 -1 1 -1 -0 -1 -1 -0 -1 -2 -1 -1 2
1 -12 -5 -6 3 1 -4 -6 1 4 4 2 -3 -1 2 4 -5 -4 1 0 -3 0 1 1 -1 1 1 -0 -0 -1 0 0 2 0 -0 -0 -1 1 0 2 0 2 -0 0 1 -1 -1 -1 0
4 2 -1 -1 2 4 39 -14 -2 6 -5 -1 -3 -2 -4 -2 -1 -4 0 2 -4 -0 -1 -3 -3 -1 1 -1 -1 1 1 1 1 -0 -0 0 -1 -1 0 1 -4 7 2 2 1 1 0 -0 -0
2 -17 -20 -7 2 -16 11 2 -4 4 -1 2 0 -2 2 4 2 -1 -4 -0 4 0 -2 -1 -1 -0 1 -1 0 1 -0 -1 -2 -1 -2 -0 0 -1 -5 -3 -2 0 1 -2 1 -0 2 -1 -1
3 -1 1 0 2 27 11 0 0 6 7 0 -1 -1 -4 -1 3 2 3 -1 -4 -2 -1 -0 0 -2 1 -0 -2 0 0 -1 -1 -1 -2 -2 -0 -1 -0 -1 -1 0 2 1 1 0 3 0 1
-5 7 -13 5 2 13 0 4 5 3 2 -1 -1 -4 -0 -3 -4 1 3 11 5 -0 3 -3 -3 -2 -0 0 -1 3 -1 1 2 1 1 -1 1 -1 -1 -2 -1 4 4 1 2 -1 1 3 4
-3 24 11 -0 -3 1 -3 2 3 3 -0 -3 -2 -1 1 -1 -1 -1 0 1 3 5 3 2 1 -2 -1 0 0 -1 -4 -2 -1 -0 2 3 2 -0 1 1 2 5 -1 7 -4 6 -2 -1 2
0 4 -1 -2 3 4 -2 3 -1 0 1 0 1 0 -1 -1 2 3 1 -1 0 2 4 3 2 1 2 3 2 1 1 1 1 2 -0 -0 -3 2 1 3 6 1 -1 5 -1 9 -4 2 1
-3 12 3 -2 1 4 -7 6 -1 -1 -3 -2 0 -1 -2 0 2 1 -0 -3 -2 -1 -1 -2 -2 -1 1 -0 -1 1 0 3 -0 2 -3 -2 -0 0 4 -0 1 1 4 2 -5 -0 1 -1 -1
-0 5 -0 0 -1 6 3 3 5 2 -1 -1 1 -3 -3 0 3 0 -2 -1 -2 -1 1 3 1 -1 -0 0 0 -1 -1 -2 -4 -4 -3 0 0 -1 1 -0 -3 0 0 0 1 -0 -1 -2 -2
4 -1 1 5 -2 2 2 -4 7 1 2 -0 0 -3 -2 3 4 2 -2 -3 -1 1 -1 1 2 0 -2 -0 1 -1 -1 -6 -4 -2 -3 -2 -4 -3 3 -0 -1 -1 -2 1 1 1 1 -1 -1
-4 6 0 -1 0 0 2 -4 -1 2 1 4 -3 0 -3 1 -1 1 -2 -1 0 1 3 1 -1 2 0 0 0 -1 -1 -3 -5 -3 -7 -2 -2 -1 5 2 2 1 0 2 3 4 3 -1 -3
-8 10 -16 4 -7 -2 2 -3 -2 4 3 3 0 -2 -2 2 -0 0 -1 -1 0 1 2 1 -0 -0 0 -0 -1 -2 -2 -2 -2 -4 -5 4 -8 -2 1 0 2 1 0 0 0 1 -0 0 -2
0 2 -3 -1 13 8 -2 0 -3 -2 -1 5 -4 6 1 5 -2 1 -1 0 1 4 4 1 1 1 1 -1 -2 -0 -1 -2 -5 2 -4 -1 6 -7 2 -0 1 -1 -2 -3 -3 -1 1 -1 -2
-1 -3 -2 -2 -10 -9 -0 2 -1 -4 4 -1 -3 0 -3 1 1 -2 -0 1 -0 0 2 1 -1 -1 0 1 -2 -2 1 -3 -2 -0 -2 -2 3 -2 1 -1 -0 -2 -1 -3 -2 2 2 0 -1
1 1 -0 1 2 -2 2 -5 -6 -6 -7 5 3 -0 -2 -15 -1 10 3 -1 1 -1 3 3 0 0 0 -2 -4 -2 1 1 1 1 1 1 -2 -1 3 3 1 2 -1 -2 -1 1 1 -1 0
-0 3 -1 -2 -1 -2 -2 -2 -1 1 -4 4 3 -1 2 1 9 -8 1 3 2 -2 1 1 1 -0 0 -2 -3 -2 2 2 1 -1 -1 0 1 3 3 -0 4 1 -1 -1 1 1 0 -1 -1
-2 0 7 -2 -1 -4 0 1 -1 0 2 -1 2 3 3 3 1 -2 8 4 1 1 2 0 1 1 1 -3 -1 -0 -1 -0 0 -0 -2 3 2 1 0 -1 -0 -0 -3 -2 -1 1 4 3 -1
5 -3 -1 -2 1 -1 -3 6 -5 -4 -7 1 -1 1 -1 -1 8 6 2 3 4 -1 -2 1 1 0 3 0 -2 -1 2 2 5 2 3 3 1 -3 -2 -1 2 2 -1 2 1 -3 -0 -4 -2
1 6 1 1 4 -4 6 4 -4 -6 -3 -19 9 -5 -1 2 -1 1 -0 5 3 3 -2 -1 0 2 1 -1 -1 1 2 2 -0 2 0 -2 2 -1 -5 -2 1 -0 -1 -3 -3 -6 -8 1 1
9 11 6 -1 4 6 -3 -9 -8 -6 -38 -3 -8 1 2 -1 1 3 3 2 2 0 -0 -1 -2 -0 2 1 -2 1 2 1 1 3 4 -2 -2 0 2 7 8 4 -0 1 -3 3 -0 -2 -3
-9 2 -6 4 4 1 3 7 9 1 -3 -1 -5 2 -1 2 -1 -1 -1 -3 0 1 2 -0 -1 -2 0 3 1 0 1 -2 -1 1 -2 -1 1 6 16 7 -3 41 1 -8 2 0 -5 2 -2
Height
5893 5892 5892 5891 5893 5890 5888 5889 5888 5889 5888 5887 5887 5888 5888 5888 5888 5892 5891 5892 5894 5893 5894 5895 5897 5898 5903 5903 5906 5907 5907 5908 5910 5911 5912 5912 5913 5913 5911 5911 5910 5909 5910 5910 5911 5912 5911 5910 5908
5892 5892 5895 5894 5894 5892 5891 5890 5890 5890 5891 5890 5890 5890 5889 5888 5890 5891 5892 5892 5893 5894 5896 5897 5899 5900 5904 5905 5909 5910 5910 5911 5912 5914 5915 5914 5915 5915 5913 5913 5911 5911 5912 5912 5911 5912 5913 5913 5911
5895 5895 5898 5897 5895 5894 5893 5894 5892 5892 5893 5890 5890 5890 5889 5888 5891 5891 5891 5892 5894 5895 5897 5899 5901 5903 5905 5907 5910 5912 5913 5913 5914 5917 5917 5917 5918 5917 5916 5915 5914 5914 5915 5914 5913 5914 5915 5915 5914
5899 5897 5897 5896 5895 5895 5892 5893 5893 5894 5893 5893 5894 5893 5891 5891 5890 5890 5892 5893 5894 5896 5899 5901 5903 5905 5906 5909 5911 5914 5915 5916 5917 5918 5918 5919 5919 5918 5918 5917 5916 5916 5917 5916 5916 5916 5916 5917 5917
5900 5898 5896 5898 5896 5894 5895 5895 5898 5897 5897 5897 5897 5895 5894 5891 5890 5891 5892 5892 5893 5897 5899 5903 5905 5906 5909 5911 5914 5916 5917 5918 5919 5920 5921 5921 5921 5920 5920 5919 5919 5919 5919 5918 5919 5918 5918 5918 5917
5903 5902 5901 5900 5898 5900 5897 5901 5900 5898 5898 5899 5898 5897 5896 5893 5893 5893 5893 5893 5895 5897 5901 5903 5906 5908 5910 5913 5915 5917 5918 5919 5920 5921 5922 5922 5922 5922 5922 5922 5922 5921 5921 5920 5921 5921 5920 5919 5918
5903 5902 5901 5899 5898 5899 5899 5901 5900 5900 5899 5900 5900 5899 5899 5895 5895 5895 5895 5896 5897 5899 5901 5904 5906 5909 5912 5914 5916 5918 5920 5921 5922 5922 5923 5923 5923 5923 5923 5923 5923 5923 5923 5922 5922 5921 5920 5919 5918
5910 5906 5903 5903 5901 5901 5901 5900 5903 5901 5900 5901 5900 5900 5901 5899 5898 5898 5898 5898 5899 5901 5904 5906 5909 5912 5914 5915 5918 5919 5921 5922 5922 5923 5924 5924 5924 5924 5924 5924 5924 5924 5924 5923 5923 5922 5922 5921 5919
5906 5905 5907 5907 5906 5906 5905 5900 5902 5902 5900 5900 5902 5901 5901 5900 5900 5902 5901 5901 5901 5904 5907 5909 5911 5913 5915 5917 5919 5921 5922 5922 5923 5923 5924 5924 5925 5924 5925 5925 5924 5924 5924 5924 5923 5922 5921 5920 5919
5910 5909 5909 5906 5905 5906 5904 5903 5905 5904 5904 5902 5902 5903 5904 5904 5902 5902 5903 5904 5905 5907 5910 5911 5913 5915 5917 5918 5920 5922 5922 5923 5923 5924 5924 5925 5925 5925 5924 5924 5923 5923 5924 5923 5923 5922 5921 5919 5919
5910 5907 5906 5905 5906 5908 5901 5901 5906 5903 5902 5900 5903 5903 5905 5906 5905 5904 5906 5907 5909 5910 5912 5914 5915 5917 5919 5920 5921 5922 5922 5923 5924 5924 5924 5924 5924 5924 5924 5924 5922 5922 5922 5921 5921 5921 5920 5919 5918
5912 5907 5904 5904 5908 5902 5905 5903 5903 5905 5905 5905 5905 5905 5906 5907 5909 5908 5908 5910 5912 5913 5914 5916 5917 5919 5920 5920 5921 5923 5923 5924 5924 5925 5924 5925 5924 5924 5922 5922 5921 5921 5921 5920 5919 5919 5919 5918 5917
5914 5913 5911 5911 5908 5903 5908 5905 5906 5909 5910 5908 5906 5905 5906 5909 5910 5911 5911 5912 5912 5914 5916 5917 5919 5920 5922 5922 5921 5923 5924 5925 5925 5924 5924 5924 5924 5924 5923 5923 5922 5922 5919 5917 5917 5916 5917 5916 5916
5915 5912 5915 5917 5915 5910 5906 5904 5908 5911 5910 5908 5907 5906 5906 5908 5909 5912 5913 5916 5916 5916 5918 5918 5919 5921 5922 5922 5923 5925 5924 5925 5926 5926 5926 5927 5927 5925 5925 5925 5923 5920 5917 5915 5915 5915 5915 5914 5915
5920 5916 5923 5920 5916 5913 5907 5908 5910 5912 5910 5910 5908 5907 5908 5909 5909 5911 5914 5915 5916 5919 5920 5921 5921 5921 5922 5923 5924 5924 5923 5924 5926 5927 5928 5929 5927 5926 5925 5924 5922 5919 5915 5912 5912 5910 5913 5912 5913
5923 5925 5923 5919 5918 5917 5911 5912 5912 5912 5912 5911 5910 5910 5911 5911 5912 5912 5914 5915 5917 5919 5920 5921 5922 5923 5924 5925 5926 5926 5925 5926 5927 5928 5928 5927 5926 5926 5926 5924 5922 5919 5914 5910 5910 5910 5912 5912 5911
5923 5926 5925 5921 5921 5920 5916 5915 5915 5913 5912 5913 5912 5912 5913 5913 5913 5914 5914 5915 5916 5917 5918 5919 5920 5922 5924 5925 5925 5926 5927 5927 5927 5927 5926 5926 5926 5926 5924 5923 5921 5918 5915 5910 5909 5909 5910 5911 5912
5924 5925 5923 5922 5922 5923 5920 5920 5918 5916 5915 5914 5916 5915 5913 5914 5914 5914 5914 5915 5916 5917 5919 5920 5921 5922 5923 5923 5924 5926 5926 5925 5925 5925 5924 5924 5923 5923 5924 5924 5922 5919 5916 5915 5913 5914 5913 5914 5913
5924 5924 5924 5924 5922 5922 5921 5922 5921 5918 5918 5917 5917 5918 5916 5915 5916 5915 5914 5916 5917 5918 5920 5921 5922 5922 5922 5923 5924 5924 5924 5924 5925 5926 5926 5925 5922 5920 5924 5926 5924 5922 5919 5917 5916 5916 5916 5915 5914
5923 5925 5923 5920 5920 5922 5922 5924 5921 5919 5918 5918 5918 5919 5918 5917 5916 5916 5915 5916 5918 5919 5920 5921 5921 5923 5922 5923 5923 5924 5923 5923 5925 5927 5928 5924 5922 5921 5921 5925 5926 5925 5922 5920 5918 5918 5919 5917 5916
5920 5925 5920 5921 5919 5919 5921 5923 5921 5920 5920 5920 5918 5917 5919 5918 5917 5917 5917 5917 5918 5920 5923 5923 5922 5923 5923 5923 5923 5924 5925 5925 5926 5926 5925 5923 5921 5925 5924 5926 5928 5925 5923 5922 5921 5920 5921 5920 5919
5921 5923 5922 5922 5923 5921 5921 5921 5920 5919 5919 5919 5915 5914 5918 5918 5918 5918 5918 5919 5920 5921 5922 5920 5921 5922 5923 5923 5923 5925 5925 5925 5925 5924 5924 5927 5926 5924 5928 5926 5927 5926 5925 5923 5921 5921 5922 5921 5919
5920 5920 5920 5920 5921 5921 5920 5919 5918 5917 5917 5916 5914 5913 5916 5917 5918 5919 5919 5921 5922 5922 5923 5921 5921 5922 5922 5923 5923 5925 5926 5925 5925 5925 5926 5926 5927 5926 5929 5926 5926 5926 5926 5924 5922 5921 5921 5920 5919
5918 5920 5920 5922 5921 5920 5920 5920 5919 5916 5914 5918 5918 5914 5916 5916 5917 5919 5921 5920 5921 5922 5923 5923 5922 5922 5922 5922 5922 5924 5926 5927 5926 5926 5927 5927 5927 5926 5928 5927 5924 5923 5922 5921 5919 5919 5919 5918 5916
5916 5917 5918 5922 5920 5920 5918 5917 5918 5917 5915 5916 5917 5916 5917 5918 5918 5919 5921 5921 5921 5921 5923 5923 5923 5923 5921 5920 5921 5923 5926 5927 5927 5927 5927 5927 5925 5926 5925 5922 5922 5922 5920 5918 5917 5917 5918 5916 5914
5913 5915 5916 5918 5918 5916 5915 5915 5915 5914 5915 5916 5917 5918 5918 5917 5918 5920 5921 5923 5922 5922 5923 5923 5923 5923 5922 5921 5921 5922 5923 5926 5927 5926 5925 5926 5925 5923 5922 5918 5919 5917 5915 5914 5913 5913 5911 5910 5909
5911 5912 5913 5914 5914 5913 5913 5913 5911 5911 5913 5916 5917 5918 5917 5918 5918 5919 5922 5923 5923 5922 5922 5924 5923 5923 5922 5921 5921 5922 5923 5924 5927 5927 5925 5924 5923 5921 5918 5917 5917 5916 5914 5912 5911 5911 5908 5906 5905
5907 5910 5911 5913 5912 5911 5912 5911 5910 5913 5914 5915 5916 5917 5917 5918 5919 5919 5921 5924 5924 5922 5921 5922 5923 5923 5923 5922 5923 5924 5924 5923 5924 5924 5922 5920 5919 5918 5916 5916 5915 5913 5911 5911 5910 5908 5907 5906 5902
5905 5907 5906 5908 5909 5909 5910 5909 5908 5911 5908 5914 5913 5917 5919 5919 5920 5922 5922 5923 5923 5922 5921 5921 5921 5922 5923 5922 5922 5923 5924 5923 5922 5921 5921 5920 5919 5916 5914 5911 5909 5909 5908 5909 5909 5902 5896 5894 5895
5899 5901 5901 5903 5906 5906 5907 5908 5908 5907 5909 5908 5911 5914 5915 5917 5919 5921 5923 5922 5922 5922 5922 5921 5920 5921 5922 5921 5922 5922 5922 5922 5921 5921 5921 5920 5917 5914 5914 5909 5907 5900 5904 5907 5897 5887 5889 5887 5883